Printer-friendly version
Follow the MPC on Twitter Follow the MPC on Facebook The MPC blog
Minor Planet Center

MPEC 2000-Y09 : 2000 XK47

The following Minor Planet Electronic Circular may be linked-to from your own Web pages, but must not otherwise be redistributed electronically.

A form allowing access to any MPEC is at the bottom of this page.


Read MPEC 2000-Y08 Read MPEC 2000-Y10


M.P.E.C. 2000-Y09                                Issued 2000 Dec. 19, 01:38 UT

     The Minor Planet Electronic Circulars contain information on unusual
         minor planets and routine data on comets.  They are published
   on behalf of Commission 20 of the International Astronomical Union by the
          Minor Planet Center, Smithsonian Astrophysical Observatory,
                          Cambridge, MA 02138, U.S.A.

             Prepared using the Tamkin Foundation Computer Network

                              MPC@CFA.HARVARD.EDU
          URL http://cfa-www.harvard.edu/iau/mpc.html  ISSN 1523-6714

                                   2000 XK47

Observations:
     K00X47K* C2000 12 15.36724 08 37 21.82 +58 49 49.9          17.0        704
     K00X47K  C2000 12 15.38252 08 37 25.86 +58 50 04.7          18.3        704
     K00X47K  C2000 12 15.39779 08 37 29.79 +58 50 18.7          18.8        704
     K00X47K  C2000 12 15.41306 08 37 33.90 +58 50 32.7          18.5        704
     K00X47K  C2000 12 15.42834 08 37 37.85 +58 50 46.4          18.9        704
     K00X47K  C2000 12 16.76621 08 44 17.62 +59 10 55.2                      327
     K00X47K  C2000 12 16.76980 08 44 18.64 +59 10 58.5                      327
     K00X47K  C2000 12 16.77342 08 44 19.63 +59 11 02.0          16.6        327
     K00X47K  C2000 12 16.77694 08 44 20.64 +59 11 05.0                      327
     K00X47K  C2000 12 16.88105 08 44 55.45 +59 12 19.0          16.9 R      046
     K00X47K  C2000 12 16.88328 08 44 56.22 +59 12 21.5                      046
     K00X47K  C2000 12 16.88431 08 44 56.52 +59 12 22.4                      046
     K00X47K  C2000 12 16.88527 08 44 56.85 +59 12 23.2                      046
     K00X47K  C2000 12 16.88623 08 44 57.12 +59 12 23.9                      046
     K00X47K  C2000 12 16.88718 08 44 57.41 +59 12 25.4                      046
     K00X47K  C2000 12 16.94518 08 45 15.72 +59 13 23.2          17.1 R      946
     K00X47K  C2000 12 16.97783 08 45 25.64 +59 13 55.7          17.1 R      946
     K00X47K  C2000 12 16.99173 08 45 29.82 +59 14 08.9          16.9 R      946
     K00X47K  C2000 12 17.00453 08 45 33.59 +59 14 22.1          17.0 R      946
     K00X47K  C2000 12 17.08987 08 45 58.71 +59 15 44.7          17.0 R      165
     K00X47K  C2000 12 17.09831 08 46 01.25 +59 15 52.0          17.0 R      165
     K00X47K  C2000 12 17.21483 08 46 41.51 +59 17 19.6                      854
     K00X47K  C2000 12 17.21925 08 46 42.85 +59 17 23.7          16.6 R      854
     K00X47K  C2000 12 17.22265 08 46 43.99 +59 17 27.9          16.7 R      854
     K00X47K  C2000 12 17.36554 08 47 27.22 +59 19 53.6          16.9        704
     K00X47K  C2000 12 17.38067 08 47 31.72 +59 20 07.4          17.1        704
     K00X47K  C2000 12 17.38266 08 47 32.36 +59 20 09.5          17.1        704
     K00X47K  C2000 12 17.39581 08 47 36.19 +59 20 21.2          17.2        704
     K00X47K  C2000 12 17.39769 08 47 36.77 +59 20 23.3          17.3        704
     K00X47K  C2000 12 17.41094 08 47 40.67 +59 20 35.0          17.7        704
     K00X47K  C2000 12 17.41334 08 47 41.48 +59 20 37.3          17.1        704
     K00X47K  C2000 12 17.42608 08 47 45.21 +59 20 48.9          17.4        704
     K00X47K  C2000 12 17.42948 08 47 46.23 +59 20 51.6          17.3        704
     K00X47K  C2000 12 17.43530 08 47 48.79 +59 20 56.7                      670
     K00X47K  C2000 12 17.44515 08 47 50.88 +59 21 05.3          16.7        704
     K00X47K  C2000 12 17.47008 08 47 59.19 +59 21 27.2                      670
     K00X47K  C2000 12 17.54583 08 48 21.76 +59 22 32.3                      670
     K00X47K  C2000 12 17.74639 08 49 32.14 +59 24 50.4                      557
     K00X47K  C2000 12 17.74819 08 49 32.76 +59 24 52.1                      557
     K00X47K  C2000 12 17.75001 08 49 33.40 +59 24 54.1          17.1 V      557
     K00X47K  C2000 12 17.92789 08 50 32.50 +59 27 52.2          16.5 R      587
     K00X47K  C2000 12 17.93102 08 50 33.52 +59 27 55.7                      587
     K00X47K  C2000 12 17.93484 08 50 34.74 +59 27 59.3                      587
     K00X47K  C2000 12 17.97880 08 50 48.63 +59 28 40.6          16.8 V      611
     K00X47K  C2000 12 17.98200 08 50 49.68 +59 28 43.7                      611
     K00X47K  C2000 12 17.98484 08 50 50.58 +59 28 46.3                      611
     K00X47K  C2000 12 18.92142 08 56 13.83 +59 42 10.2          16.5 R      165
     K00X47K  C2000 12 18.93021 08 56 16.86 +59 42 19.1          16.6 R      165
     K00X47K  C2000 12 18.93413 08 56 18.28 +59 42 22.8          16.4 R      165
     K00X47K  C2000 12 18.94056 08 56 20.51 +59 42 29.5          16.4 R      165
     K00X47K  C2000 12 18.95203 08 56 24.45 +59 42 41.0          16.4 R      165

Observer details:
046 Klet.  Observers J. Ticha, M. Tichy.  0.57-m f/5.2 reflector + CCD.
165 Piera Observatory, Barcelona.  Observer J. Guarro.  0.40-m f/2 Schmidt
    + CCD.
327 Peking Observatory, Xinglong Station.  Observers J. Zhu, C. H. Liu.  0.6-m
    Schmidt + CCD.
557 Ondrejov.  Observer L. Sarounova.  0.65-m f/3.6 reflector + CCD.
587 Sormano.  Observer F. Manca.  0.5-m reflector + CCD.
611 Starkenburg.  Observers M. Busch, F. Hormuth, R. Stoss.  0.45-m f/4.4
    reflector + CCD.
670 Camarillo.  Observer J. E. Rogers.  0.30-m f/6.7 Helin Telescope + CCD.
704 Lincoln Laboratory ETS, New Mexico.  Observers M. Blythe, F. Shelly,
    M. Bezpalko, R. Huber, L. Manguso, S. Adams.  Measurers J. Stuart,
    R. Sayer, J. B. Evans, H. Viggh.  1.0-m f/2.15 reflector + CCD.
854 Sabino Canyon Observatory, Tucson.  Observer J. E. McGaha.  0.30-m f/6.1
    Schmidt-Cassegrain + CCD.
946 Ametlla de Mar.  Observer J. Nomen.  0.40-m f/2.0 Schmidt + CCD.

Orbital elements:
2000 XK47
Epoch 2000 Dec. 2.0 TT = JDT 2451880.5                  Williams
M 317.77255              (2000.0)            P               Q
n   0.50775942     Peri.  230.79597     -0.97766707     -0.07794098
a   1.5560757      Node   303.88798     +0.16858611     -0.84535823
e   0.4751238      Incl.   13.59816     -0.12548234     -0.52848337
P   1.94           H   18.4           G   0.15
From 51 observations 2000 Dec. 15-18.

Ephemeris:
2000 XK47                a,e,i = 1.56, 0.48, 14                  q = 0.8167
Date    TT    R. A. (2000) Decl.     Delta      r     Elong.  Phase     V
2000 12 12    08 22.60   +57 57.8    0.288    1.197   132.1    37.6    17.6
2000 12 17    08 45.49   +59 14.2    0.243    1.160   131.6    39.4    17.2
2000 12 22    09 16.40   +60 23.1    0.200    1.123   130.2    42.0    16.8
2000 12 27    10 01.54   +61 02.1    0.158    1.086   127.3    46.1    16.3
2001 01 01    11 11.07   +59 54.5    0.119    1.051   121.6    52.8    15.8
2001 01 06    12 51.41   +52 46.9    0.085    1.016   110.2    65.3    15.4
2001 01 11    14 39.95   +30 24.3    0.063    0.982    87.0    89.3    15.5
2001 01 16    16 02.58   -03 39.1    0.066    0.950    58.2   118.4    17.1
2001 01 21    16 56.78   -25 37.1    0.093    0.921    45.3   130.5    18.8

2001 03 22    20 38.81   -39 25.1    0.602    0.887    61.7    81.5    19.9
2001 04 01    21 02.45   -36 34.6    0.662    0.942    65.5    74.8    20.0
2001 04 11    21 22.93   -33 43.7    0.707    1.007    69.7    69.1    20.1
2001 04 21    21 40.12   -31 00.1    0.736    1.077    74.6    64.1    20.2
2001 05 01    21 53.77   -28 29.0    0.751    1.150    80.3    59.7    20.2
2001 05 11    22 03.63   -26 13.7    0.752    1.224    86.8    55.4    20.2
2001 05 21    22 09.31   -24 16.5    0.742    1.298    94.3    51.0    20.2
2001 05 31    22 10.16   -22 39.1    0.724    1.371   103.0    46.1    20.1
2001 06 10    22 05.52   -21 21.7    0.702    1.442   113.0    40.4    20.0
2001 06 20    21 54.81   -20 22.9    0.681    1.511   124.6    33.6    19.9
2001 06 30    21 37.90   -19 38.8    0.669    1.577   137.7    25.7    19.7
2001 07 10    21 15.95   -19 02.3    0.671    1.640   152.1    16.9    19.5
2001 07 20    20 51.48   -18 26.7    0.695    1.700   167.1     7.7    19.3
2001 07 30    20 27.94   -17 48.8    0.743    1.758   177.7     1.3    19.2
2001 08 09    20 08.34   -17 09.5    0.816    1.812   163.8     9.0    19.9
2001 08 19    19 54.21   -16 32.0    0.912    1.863   151.0    15.3    20.4
2001 08 29    19 45.79   -15 57.9    1.028    1.912   139.5    20.1    20.9
2001 09 08    19 42.49   -15 26.9    1.158    1.957   129.1    23.5    21.3
2001 09 18    19 43.41   -14 57.7    1.300    1.999   119.7    25.9    21.7
2001 09 28    19 47.76   -14 28.3    1.450    2.038   111.1    27.3    22.0

Gareth V. Williams           (C) Copyright 2000 MPC           M.P.E.C. 2000-Y09

Read MPEC 2000-Y08 Read MPEC 2000-Y10


MPEC number:

Enter an MPEC number in one of the following forms:

  • 1997-B01 (the full form)
  • J97B01 (the packed version of the full form)
  • B01 (the abbreviated form)

Valid HTML 4.01!